Location: *
(46.0770°N, 1.6444°E)
Time: 20:37:37
(UTC+00:00)

Nadezhda 1 Rocket - Pass Details

Date: 16 September 2019
Orbit: 942 x 1005 km, 83.0° (Epoch: 21 October)

Event Time Altitude Azimuth Distance (km) Brightness Sun altitude
Rises 18:39:27 0° 166° (SSE) 3,600 6.7 -7.0°
Reaches altitude 10° 18:42:02 10° 160° (SSE) 2,656 6.0 -7.4°
Maximum altitude 18:47:43 44° 90° (E) 1,277 4.2 -8.4°
Drops below altitude 10° 18:53:26 10° 20° (NNE) 2,674 6.2 -9.4°
Sets 18:56:02 0° 14° (NNE) 3,627 7.0 -9.8°
